Weather History for Dallas/Ft Worth, TX

Change the Weather History Date:

Saturday, September 24, 2011

  Actual Average Record
Temperature  
Mean Temperature 78 °F 75 °F  
Max Temperature 96 °F 85 °F 99 °F (1907)
Min Temperature 60 °F 64 °F 49 °F (1989)
Degree Days  
Heating Degree Days 0 0  
Month to date heating degree days 0 0  
Since 1 July heating degree days 0 0  
Cooling Degree Days 13 10  
Month to date cooling degree days 365 340  
Year to date cooling degree days 3333 2522  
Growing Degree Days 28 (Base 50)    
Moisture  
Dew Point 49 °F    
Average Humidity 45    
Maximum Humidity 72    
Minimum Humidity 17    
Precipitation  
Precipitation 0.00 in 0.09 in 1.45 in (1968)
Month to date precipitation 0.65 2.09  
Year to date precipitation 17.54 26.20  
Sea Level Pressure  
Sea Level Pressure 29.85 in    
Wind  
Wind Speed 10 mph (SSW)    
Max Wind Speed 21 mph    
Max Gust Speed 32 mph    
Visibility 10 miles    
Events      
T = Trace of Precipitation, MM = Missing Value Source: NWS Daily Summary

Daily Weather History Graph

Daily Weather History Graph

Search for Another Location

Airport:

Trip Planner

Search our weather history database for the weather conditions in past years. The results will help you decide how hot, cold, wet, or windy it might be!

Date:

Astronomy

Sep. 24, 2011 Rise Set
Actual Time 7:17 AM CDT 7:22 PM CDT
Civil Twilight 6:52 AM CDT 7:46 PM CDT
Nautical Twilight 6:24 AM CDT 8:15 PM CDT
Astronomical Twilight 5:55 AM CDT 8:44 PM CDT
Moon 4:03 AM CDT (9/24) 5:22 PM CDT (9/24)
Length of Visible Light 12h 54m
Length of Day
12h 04m
Waning Crescent, 11% of the Moon is Illuminated
Sep 24
Waning Crescent
Sep 27
New
Oct 3
First Quarter
Oct 11
Full
Oct 19
Last Quarter

Hourly Weather History & Observations

Time (CDT) Temp. Dew Point Humidity Pressure Visibility Wind Dir Wind Speed Gust Speed Precip Events Conditions
12:53 AM 64.9 °F 51.1 °F 61% 29.99 in 10.0 mi South 5.8 mph - N/A   Clear
1:53 AM 63.0 °F 50.0 °F 63% 29.97 in 10.0 mi SSW 5.8 mph - N/A   Clear
2:53 AM 64.9 °F 52.0 °F 63% 29.96 in 10.0 mi SSW 5.8 mph - N/A   Clear
3:53 AM 63.0 °F 51.1 °F 65% 29.95 in 10.0 mi SSW 5.8 mph - N/A   Clear
4:53 AM 63.0 °F 51.1 °F 65% 29.95 in 10.0 mi SW 3.5 mph - N/A   Clear
5:53 AM 61.0 °F 51.1 °F 70% 29.95 in 10.0 mi Calm Calm - N/A   Clear
6:53 AM 61.0 °F 50.0 °F 67% 29.95 in 10.0 mi South 8.1 mph - N/A   Partly Cloudy
7:53 AM 62.1 °F 51.1 °F 67% 29.95 in 10.0 mi South 5.8 mph - N/A   Partly Cloudy
8:53 AM 68.0 °F 51.1 °F 55% 29.95 in 10.0 mi South 10.4 mph - N/A   Partly Cloudy
9:53 AM 75.0 °F 51.1 °F 43% 29.95 in 10.0 mi South 16.1 mph - N/A   Partly Cloudy
10:53 AM 80.1 °F 50.0 °F 35% 29.95 in 10.0 mi South 13.8 mph - N/A   Partly Cloudy
11:53 AM 84.9 °F 46.9 °F 27% 29.92 in 10.0 mi SSW 13.8 mph 21.9 mph N/A   Partly Cloudy
12:53 PM 89.6 °F 44.6 °F 21% 29.90 in 10.0 mi South 15.0 mph 21.9 mph N/A   Scattered Clouds
1:53 PM 91.9 °F 46.0 °F 21% 29.83 in 10.0 mi SSW 20.7 mph 26.5 mph N/A   Scattered Clouds
2:53 PM 93.0 °F 48.0 °F 21% 29.79 in 10.0 mi SSW 13.8 mph 21.9 mph N/A   Scattered Clouds
3:53 PM 96.1 °F 48.0 °F 19% 29.76 in 10.0 mi South 16.1 mph 24.2 mph N/A   Scattered Clouds
4:53 PM 95.0 °F 48.0 °F 20% 29.74 in 10.0 mi WSW 11.5 mph - N/A   Mostly Cloudy
5:53 PM 96.1 °F 45.0 °F 17% 29.72 in 10.0 mi West 8.1 mph - N/A   Mostly Cloudy
6:53 PM 91.9 °F 48.0 °F 22% 29.72 in 10.0 mi South 5.8 mph - N/A   Mostly Cloudy
7:53 PM 86.0 °F 48.9 °F 28% 29.71 in 10.0 mi SSE 5.8 mph - N/A   Mostly Cloudy
8:53 PM 84.9 °F 51.1 °F 31% 29.71 in 10.0 mi SE 9.2 mph - N/A   Scattered Clouds
9:53 PM 84.0 °F 50.0 °F 31% 29.71 in 10.0 mi SSE 12.7 mph - N/A   Mostly Cloudy
10:53 PM 84.2 °F 48.2 °F 29% 29.73 in 10.0 mi South 12.7 mph - N/A   Mostly Cloudy
11:53 PM 81.0 °F 48.0 °F 31% 29.70 in 10.0 mi South 11.5 mph - N/A   Mostly Cloudy